Regional Weather Roundup
Issued by NWS Charleston, SC

Current Version | Previous Version | Graphics & Text | Print | Product List | Glossary On
Versions: 1 2 3 4 5 6 7 8 9 10 11 12 13 14 15 16 17 18 19 20 21 22 23 24 25 26 27 28 29 30 31 32 33 34 35 36 37 38 39 40 41 42 43 44 45 46 47 48 49 50
997 ASUS42 KCHS 211512 RWRCHS REGIONAL WEATHER ROUNDUP NATIONAL WEATHER SERVICE CHARLESTON SC 1100 AM EDT SAT OCT 21 2017 NOTE: "FAIR" INDICATES FEW OR NO CLOUDS BELOW 12,000 FEET WITH NO SIGNIFICANT WEATHER AND/OR OBSTRUCTIONS TO VISIBILITY. NOT ALL STATIONS ARE QUALITY CONTROLLED. USE DATA WITH CAUTION... ESPECIALLY DEWPOINT OBSERVATIONS. SCZ027-030-031-034>040-042>050-211600- ...SOUTHEAST SOUTH CAROLINA... CITY SKY/WX TMP DP RH WIND PRES REMARKS N CHARLESTON MOSUNNY 74 61 63 NE9 30.30S WATERFRONT PRK N/A 72 63 73 N7 30.15 JOHNS ISLAND FAIR 75 61 60 N8 30.30S PINOPOLIS N/A 66 63 88 E5 30.23S MONCKS CORNER FAIR 72 57 60 NE5 30.31S SUMMERVILLE FAIR 70 63 78 E3 30.31S BEAUFORT MCAS SUNNY 75 62 64 MISG 30.30R BEAUFORT ARPT FAIR 72 61 68 NE8 30.29S HILTON HEAD IS SUNNY 73 63 68 N8 N/A WALTERBORO SUNNY 70 59 68 NE3 30.32R ALLENDALE N/A 72 59 64 VRB5 N/A ...SOUTHERN MIDLANDS AND PEE DEE... CITY SKY/WX TMP DP RH WIND PRES REMARKS GEORGETOWN FAIR 72 61 68 NE6 30.32S KINGSTREE FAIR 72 57 60 CALM 30.32S ORANGEBURG SUNNY 73 56 54 NE7 30.32S BARNWELL N/A 73 59 60 VRB3 30.32R AIKEN FAIR 70 57 64 NE3 30.35S MANNING HAZE 70 61 73 MISG 30.32S VSB<1/4 COLUMBIA PTSUNNY 70 59 68 CALM 30.32S SUMTER SUNNY 72 57 60 N3 30.30S FLORENCE SUNNY 71 56 58 N3 30.33S MYRTLE BEACH SUNNY 74 59 59 NE7 30.33S N MYRTLE BEACH SUNNY 73 57 57 NE6 30.32S $$ GAZ063-065-086>088-099>101-113>116-118-119-134>141-150-211600- ...SOUTHEAST GEORGIA... CITY SKY/WX TMP DP RH WIND PRES REMARKS SAVANNAH ARPT PTSUNNY 77 61 57 NE7 30.29R HUNTER AAF CLOUDY 77 64 63 NE7 30.25S FORT STEWART PTSUNNY 75 61 61 NE9 30.25S STATESBORO CLOUDY 73 59 60 NE3 30.30S SYLVANIA SUNNY 73 63 71 E7 30.31S CLAXTON FAIR 74 64 71 N5 30.28S ...CSRA...CENTRAL AND FAR SOUTHEAST GEORGIA... CITY SKY/WX TMP DP RH WIND PRES REMARKS THOMSON CLOUDY 65 57 75 CALM 30.37S AUGUSTA-BUSH MOSUNNY 71 61 70 N3 30.31S AUGUSTA-DANIEL MOSUNNY 72 61 68 N3 30.33R SWAINSBORO FAIR 70 59 68 E6 30.31S VIDALIA MOSUNNY 72 63 73 E5 30.29R EASTMAN FAIR 76 43 30 E5 30.30F HAZLEHURST FAIR 74 57 55 E7 30.27R ALMA SUNNY 77 64 64 NE7 30.26R WAYCROSS SUNNY 79 62 56 E7 30.25S JESUP NOT AVBL BAXLEY FAIR 73 63 68 E7 30.27R BRUNSWICK SUNNY 79 64 61 NE13G21 30.26R SAINT SIMONS MOSUNNY 78 69 73 NE10G20 30.24R $$ SCZ027-028-034-036>038-045-046-048>050-GAZ119-141-211600- ...LAKE AND SUPPLEMENTAL COASTAL OBSERVATIONS... STATION/POSITION TIME TEMP WIND PRES WAVE SWELL AIR SEA DIR/SP/G HT/PER HT/PER/DIR (UTC) (F) (DEG/KT/KT) (MB) (FT/S) (FT/S/D) WINYAH BAY 1345 68 20/ 4 1026.0 LAKE MURRAY 1420 67 CALM / 1 1026.1S ACE BASIN NERRS 1345 67 10/ 2 1026.0 FORT PULASKI 1448 73 73 40/ 9/ 11 1025.6R SAPELO ISLAND NOT AVBL $$ ANZ835-935-AMZ111-154-330-350-352-354-370-450-454-472-211600- ...C-MAN AND BUOY OBSERVATIONS... STATION/POSITION TIME TEMP WIND PRES WAVE SWELL AIR SEA DIR/SP/G HT/PER HT/PER/DIR (UTC) (F) (DEG/KT/KT) (MB) (FT/S) (FT/S/D) BUOY 41004 1450 76 81 30/ 16/ 19 1024.8R 3/ 9 2/110/ 9 BUOY 41008 1450 75 77 50/ 17/ 21 1023.6R 4/ 8 2/130/ 8 FOLLY BEACH CMAN 1400 71 20/ 9/ 11 1026.4R CAPERS NEARSHORE 1408 68 73 30/ 12/ 16 1025.6R FRIPP NEARSHORE 1408 72 40/ 12/ 16 N/A STATION/POSITION TIME TEMP WIND PRES WAVE SWELL AIR SEA DIR/SP/G HT/PER HT/PER/DIR (UTC) (F) (DEG/KT/KT) (MB) (FT/S) (FT/S/D) 5E ST. MARYS GA 1430 77 N/A 4/ 5 FRYING PAN BUOY 1450 74 76 40/ 10/ 14 1026.0R 3/ 9 3/110/ 9 BUOY 41025 1450 73 81 10/ 12/ 14 1026.7R 3/ 8 3/120/ 8 CAPE LOOKOUT NC 1400 69 10/ 11/ 12 1026.6R BUOY 41002 1350 77 80 70/ 12/ 16 1024.5 4/ 9 3/ 90/ 9 BUOY 41010 NOT AVBL ST AUGUSTINE FL 1500 79 77 70/ 15/ 16 1023.5R $$

USA.gov is the U.S. government's official web portal to all federal, state and local government web resources and services.